Weather in Kazarka

Russia / Penza Oblast     53°35′48″N   45°47′22″E
temp.,
°C
wind,
m/s
gust,
m/s
humid.,
%
clouds,
%
prec.,
mm/h
press.,
hPa
HPBL,
m
25 july, sun
sun2500:00+11ne23925 0.0 101747
03:00+10nne22941 0.0 101821
06:00+13nne11782 0.0 101992
09:00+18nne23535 0.0 10201141
12:00+20nne2242100 0.0 10212201
15:00+19n225099 0.0 1021791
18:00+19ne245950 0.0 1022265
21:00+16e1162100 0.0 102222
26 july, mon
mon2600:00+15sse116292 0.0 102310
03:00+15wnw0063100 0.0 102311
06:00+15nw11715 0.0 102451
09:00+19wnw125255 0.0 1024593
12:00+22wnw353793 0.0 10242510
15:00+23nw3538100 0.0 10232638
18:00+20nw1361100 0.0 1023162
21:00+15wsw11674 0.0 102312
27 july, tue
tue2700:00+16sw2263100 0.0 102339
03:00+14wsw247440 0.0 102276
06:00+15w24748 0.0 1022121
09:00+19wnw256331 0.0 1022322
12:00+25nw463856 0.0 10202602
15:00+24nw3645100 0.0 10191734
18:00+22nnw375845 0.1 1019522
21:00+16wnw227544 0.1 101922
28 july, wed
wed2800:00+15nw11814 0.0 101911
03:00+15w118198 0.1 101912
06:00+16wnw12795 0.0 101968
09:00+23w12549 0.0 1018566
12:00+26wnw35399 0.0 10162181
15:00+24w1356100 0.0 1015178
18:00+24sw116011 0.0 101430
21:00+20ssw2262100 0.0 101424
29 july, thu
thu2900:00+17ssw3669100 0.0 101388
03:00+15w398592 0.3 1013172
06:00+17ese3685100 0.0 101096
09:00+15sse2696100 4.0 1011160
12:00+16s4995100 6.1 1009361
15:00+23wsw487387 6.5 10071085
18:00+22wnw28855 1.2 1007582
21:00+18sw389412 1.6 1007149